sat.trackr.live / text

‹ back to catalog

STARLINK-11264 [DTC]

NORAD 60906 · 2024-154D

PAYLOAD ACTIVE UNKNOWN

§ Identity

Operator
Country
US
Launch date
2024-08-31
Launch site
AFETR
Launch vehicle
Mass (kg)
RCS (m²)

Purposes: comms

External: N2YO · Heavens-Above · Gunter

§ Orbital elements

Epoch: 2026-05-25T02:38:25.050624Z

Period
91.74 min
Inclination
53.1597°
Eccentricity
0.0001183
Mean motion
15.69700535 rev/d
Perigee alt
359.0 km
Apogee alt
360.6 km
Semi-major
6,737.9 km
B*
4.7987e-6
RAAN
114.7928°
Arg perigee
88.4077°
Mean anomaly
271.7077°
Rev number
10,051

§ Raw data

STARLINK-11264 [DTC]1 60906U 24154D   26145.11001216 -.00000008  00000+0  47987-5 0  99952 60906  53.1597 114.7928 0001183  88.4077 271.7077 15.69700535100511

JSON: /api/v1/satellites/60906 · /tle

For live sub-satellite position, see the globe view (requires WebGL).

§ Visibility from observer

Set your observer location to see the next 7 days of passes ≥ 10°. The values pass through the URL so the page stays shareable.

No JS? Fill the form by hand. The geolocation button needs JavaScript.